ECMWFNIL_sfc_dewp_093.txt.gz
Dewpoint
63 63 63 63 63 64 64 64 65 64 65 64 63 63 64 64 66 66 66 65 66 66 65 65 67 65 65 66 67 66 65 65 65 65 65 65 65 66 65 65 64 63
62 62 63 63 62 62 63 63 63 63 63 66 64 64 65 66 65 66 66 65 65 65 65 66 66 65 65 65 64 65 65 65 65 65 65 65 65 65 64 64 64 64
61 62 62 62 62 63 63 63 63 64 64 65 66 66 65 65 65 65 65 65 64 64 65 66 65 66 66 64 64 65 65 65 64 64 65 64 66 65 65 64 64 64
61 61 61 62 62 62 63 63 63 63 64 64 64 65 65 65 64 64 64 64 64 64 64 65 66 65 64 65 64 64 64 64 64 65 65 65 65 65 64 65 64 64
60 60 60 61 61 62 62 62 62 62 63 64 63 65 65 65 64 64 65 65 65 65 65 64 66 65 65 65 64 65 65 65 65 64 64 64 65 64 64 64 64 63
59 59 59 60 61 61 62 61 61 61 61 64 64 63 64 65 64 64 64 63 64 65 65 63 64 65 65 64 64 64 65 64 65 64 63 63 64 65 63 63 63 62
59 59 60 59 60 60 61 62 62 61 61 64 63 64 64 63 63 63 62 63 63 63 63 63 64 64 66 65 65 64 64 64 64 63 63 64 64 63 63 63 63 62
58 59 59 59 60 60 60 60 61 61 62 63 64 65 64 62 62 63 64 63 62 62 63 62 63 64 65 64 63 65 64 65 64 63 64 63 63 61 63 63 63 62
58 58 59 59 59 60 61 60 61 62 61 62 63 63 64 63 63 63 63 63 62 63 62 62 63 62 63 65 64 63 63 63 63 63 63 62 62 62 62 62 62 63
57 57 58 58 58 58 59 60 61 61 61 62 62 62 62 63 63 62 62 63 63 62 62 63 63 64 64 63 63 62 62 62 62 62 62 62 62 61 62 61 61 62
56 56 56 57 57 57 58 59 60 61 61 61 62 62 61 62 63 63 63 63 62 62 62 62 63 63 63 64 64 63 63 61 63 62 62 62 62 62 62 62 61 59
55 55 56 56 57 57 58 58 58 59 60 61 61 61 62 63 63 64 63 62 62 62 62 61 62 63 62 63 63 63 64 63 62 62 61 61 62 62 61 62 61 61
54 54 55 56 56 57 58 58 58 58 59 60 60 60 61 62 62 61 62 62 63 63 64 63 63 63 64 63 64 62 62 62 64 63 62 63 62 62 63 62 60 60
53 54 54 55 54 55 56 57 58 59 59 60 60 60 61 61 61 62 62 63 63 62 62 62 63 63 63 63 63 63 63 63 62 62 62 62 62 62 62 62 61 62
53 53 54 54 53 53 55 55 56 57 58 59 60 61 61 61 61 61 61 61 62 62 62 64 63 63 63 63 64 63 63 62 62 62 63 63 61 62 62 61 62 61
52 53 52 53 53 53 53 54 54 54 56 57 59 60 60 60 61 61 60 60 62 61 62 64 63 64 61 57 57 63 63 63 62 63 63 63 63 62 62 62 61 64
51 51 52 52 52 52 53 52 52 53 54 54 55 58 60 60 60 59 60 62 61 61 62 63 62 61 53 50 52 55 61 63 62 62 62 63 62 62 61 61 61 61
50 50 51 51 51 50 51 51 51 51 51 51 53 55 58 60 61 62 61 62 61 61 62 62 61 54 48 47 49 51 56 64 63 62 62 63 62 62 61 61 61 62
48 49 50 50 50 50 50 50 50 50 50 50 51 53 55 58 60 61 60 61 60 61 61 62 61 45 47 47 48 47 49 57 63 62 62 63 63 62 61 62 62 62
48 48 49 49 50 49 50 49 49 49 49 49 50 51 52 54 55 57 58 60 60 61 61 62 58 43 43 45 47 46 47 52 60 62 63 62 61 61 62 62 62 61
48 48 49 49 49 49 49 49 49 49 49 49 49 50 50 50 51 52 54 56 58 61 61 56 50 40 40 40 42 42 44 47 60 62 63 61 62 62 62 61 62 60
48 48 48 49 49 49 49 48 49 49 48 48 48 48 48 48 48 49 50 52 53 55 56 54 51 39 40 41 41 42 40 59 59 61 61 62 63 62 62 63 62 62
47 47 48 48 49 49 48 49 49 48 48 48 47 47 47 47 47 47 48 48 49 51 52 52 50 42 39 40 41 42 49 59 60 61 61 62 59 58 57 54 53 57
47 47 48 48 48 48 48 48 48 48 47 47 46 46 45 45 46 46 46 46 46 47 48 49 49 43 39 40 40 42 51 60 60 59 56 55 54 53 53 52 50 48
47 47 48 48 48 48 48 47 47 47 47 47 46 46 46 45 45 45 45 45 45 45 45 46 47 44 39 39 41 42 54 61 56 54 54 54 53 52 52 52 50 47
46 47 48 48 48 48 48 47 47 47 47 46 46 46 46 47 47 46 45 44 45 45 44 44 45 45 41 39 41 41 47 56 53 53 53 53 52 50 50 50 50 48

ECMWFNIL_sfc_dewp_096.txt.gz
Dewpoint
63 63 63 63 63 63 64 64 64 64 65 66 65 65 66 66 65 64 65 66 65 65 65 65 65 65 64 66 65 66 65 64 64 65 65 64 64 64 63 64 64 64
63 63 63 63 63 63 64 64 64 64 64 64 65 65 66 66 66 67 66 66 65 65 65 65 65 65 65 64 64 64 65 64 63 65 64 64 64 64 63 63 64 64
61 61 61 61 61 62 63 64 64 64 64 64 65 65 65 66 66 66 66 66 65 65 65 65 64 64 64 65 65 65 64 64 64 64 64 64 63 63 63 64 64 64
60 60 60 60 61 61 62 62 63 63 63 63 63 64 64 65 66 65 66 65 65 65 65 65 65 65 64 64 64 64 65 65 64 64 63 63 63 64 63 64 63 63
59 59 59 59 60 61 61 61 61 62 63 63 63 64 64 64 65 64 65 65 65 65 65 63 62 63 64 65 64 64 64 64 64 64 64 63 64 64 63 63 63 63
59 57 58 59 60 60 60 60 60 60 61 62 63 63 63 64 64 64 65 64 65 65 64 64 64 64 64 64 64 64 64 64 64 63 64 63 63 64 64 63 63 63
58 58 59 58 59 59 59 59 60 61 61 62 62 63 63 64 64 63 62 63 63 63 62 63 63 63 63 64 63 63 63 64 64 63 63 63 63 63 63 63 62 63
57 58 57 58 58 58 58 58 58 59 60 61 62 62 63 62 63 64 63 63 63 63 63 63 64 63 63 64 64 64 62 63 63 63 63 62 64 62 63 62 63 62
57 56 57 57 57 58 58 58 58 59 58 59 60 61 62 62 63 63 63 62 62 64 64 63 63 63 64 64 64 63 62 63 63 62 62 62 62 62 62 63 63 62
55 56 56 56 57 57 57 58 58 59 59 58 58 60 61 63 63 62 62 62 62 63 63 64 63 64 64 64 64 63 62 62 62 63 62 62 62 63 62 62 63 62
55 55 55 56 56 57 58 58 58 58 59 59 59 59 59 61 62 62 62 63 62 62 63 63 63 63 63 63 63 63 63 63 62 62 62 63 62 62 62 62 63 62
54 54 54 55 56 56 57 57 56 56 56 56 57 58 59 60 61 61 62 62 62 62 63 64 64 64 63 63 63 63 63 63 63 63 63 62 63 63 62 63 62 62
53 54 54 55 55 56 55 54 54 54 54 54 55 56 56 58 60 60 61 61 61 62 62 62 63 64 64 63 63 63 63 62 62 62 62 62 62 62 62 62 63 62
53 53 53 54 55 54 54 54 53 53 53 53 53 53 55 56 57 60 61 62 62 61 62 62 63 63 64 63 63 63 63 63 62 62 63 62 63 62 62 61 62 63
52 53 53 53 53 52 52 52 52 52 52 51 51 52 54 55 57 59 60 60 62 62 61 61 62 63 63 63 63 63 63 63 62 62 62 62 62 62 62 62 62 62
50 51 51 52 52 51 51 51 50 51 51 50 50 51 52 53 55 57 58 60 61 61 61 61 62 63 62 57 58 63 63 62 62 62 62 61 61 62 61 62 62 62
49 49 50 50 50 50 50 50 49 50 50 50 50 50 51 51 52 53 55 58 60 61 61 60 61 62 53 49 49 53 62 63 62 62 63 61 62 61 61 62 62 62
49 48 48 49 50 49 49 49 49 49 49 49 49 49 49 50 50 50 52 54 57 58 59 61 61 54 46 46 45 46 53 62 62 61 61 61 61 60 61 62 61 61
48 48 48 49 49 49 49 49 49 49 48 48 48 48 48 48 48 49 49 51 52 54 56 55 54 43 40 41 44 45 48 57 61 61 60 61 61 61 61 61 62 61
47 47 48 48 49 49 49 48 48 48 48 47 47 47 47 47 47 47 47 48 49 51 54 53 50 42 39 40 40 41 42 50 61 62 61 62 62 61 60 60 60 60
47 48 48 48 48 49 48 48 48 47 47 47 46 46 46 46 46 45 46 46 46 47 50 51 50 41 39 39 40 40 39 49 61 61 60 60 61 61 60 61 61 61
47 47 48 48 48 48 48 47 47 47 47 47 46 46 46 45 45 45 45 44 45 45 46 48 48 42 39 39 39 41 46 59 61 61 60 59 56 55 55 57 60 60
47 47 47 48 48 47 47 47 47 47 47 47 46 46 45 45 45 44 44 44 44 44 44 45 46 43 39 39 40 44 54 60 59 58 56 55 53 53 52 52 55 60
46 47 47 47 47 47 46 47 47 47 47 47 46 46 45 45 45 45 45 45 44 43 43 44 45 43 40 39 42 47 54 58 57 55 54 53 52 52 51 50 48 48
45 46 46 46 47 46 46 46 46 46 46 46 46 46 45 45 45 45 45 45 45 44 44 43 43 43 40 39 42 45 53 57 56 55 53 52 50 49 49 49 47 45
44 45 45 45 45 46 45 45 45 45 44 44 45 44 44 44 45 45 45 45 45 45 44 43 42 42 41 39 41 43 46 54 54 53 50 50 50 49 47 46 46 45

ECMWFNIL_sfc_dewp_102.txt.gz
Dewpoint
58 58 58 58 58 58 58 59 59 60 60 61 61 62 62 62 62 62 63 63 63 62 62 62 63 63 63 63 63 62 62 63 63 63 62 62 62 62 61 62 62 62
57 57 58 57 57 58 58 58 58 58 59 59 59 60 61 62 62 63 63 62 62 63 63 62 62 63 63 63 62 62 63 63 62 63 63 63 63 63 63 63 63 62
56 56 57 57 57 56 57 57 57 57 58 58 58 59 59 61 62 63 63 63 62 62 62 62 62 62 62 62 62 62 62 61 61 62 63 63 63 62 63 63 62 62
55 56 57 57 56 56 56 56 57 57 57 57 57 58 59 60 60 61 61 63 62 62 62 62 62 61 62 62 63 63 62 62 61 61 61 62 62 62 62 62 62 61
55 55 55 55 55 56 55 55 56 56 56 57 57 58 58 58 59 60 60 61 61 62 62 62 62 62 62 62 62 62 62 61 61 62 62 62 62 62 62 63 62 61
54 54 55 55 55 55 56 56 56 56 55 54 55 56 55 56 57 57 58 59 61 61 61 61 61 61 61 61 61 61 61 61 62 62 62 61 61 62 62 62 63 62
53 53 54 54 54 55 55 55 54 54 53 53 53 53 53 54 54 55 57 58 60 61 61 61 61 61 61 61 61 62 62 62 62 62 61 61 61 61 62 62 62 62
52 53 53 53 54 53 52 52 52 52 52 52 51 52 52 52 53 55 56 57 59 61 61 61 61 61 61 60 60 61 61 61 62 62 62 62 62 62 62 62 62 61
52 52 52 53 52 51 51 51 51 51 52 51 51 51 51 52 53 54 54 56 58 60 61 61 61 61 61 61 61 61 61 61 61 62 62 61 61 62 62 62 62 61
51 51 52 51 50 50 50 50 50 50 50 50 50 50 50 51 52 51 52 52 54 56 58 60 60 60 60 60 60 61 61 61 61 61 62 62 61 61 61 62 62 61
50 51 50 50 49 49 49 50 49 49 49 49 49 49 49 49 50 49 50 50 52 53 55 57 58 60 61 61 61 61 61 61 62 62 62 62 62 61 61 61 61 61
49 50 50 49 49 49 49 49 49 48 48 48 48 48 48 48 48 48 48 49 49 50 52 54 56 58 55 54 54 56 60 61 62 62 62 62 62 62 61 61 61 61
49 49 50 49 49 49 49 49 48 48 48 48 47 47 47 47 47 47 47 47 47 48 49 51 54 54 51 49 49 50 54 58 61 61 61 62 62 62 62 61 61 61
49 49 49 49 49 49 48 48 48 47 47 47 47 46 47 46 46 46 46 46 46 47 47 48 51 52 50 48 47 46 48 53 58 61 61 61 61 61 61 61 61 61
49 49 49 48 48 48 48 48 47 47 47 47 46 46 46 46 46 45 45 45 45 45 45 47 49 50 50 48 45 44 45 47 53 59 61 61 61 61 61 60 61 61
48 48 48 48 47 47 47 47 47 47 47 46 46 46 46 45 45 45 45 45 44 44 44 45 47 48 49 46 44 43 43 45 49 56 60 61 60 60 60 60 60 60
47 47 47 47 47 46 46 47 47 47 46 46 46 46 45 45 45 44 44 44 44 44 44 45 45 47 44 41 40 41 42 44 47 52 58 60 60 60 59 59 60 60
46 46 46 46 46 45 45 46 46 46 46 45 45 45 45 45 44 44 44 44 44 44 44 44 44 45 41 40 40 39 41 43 45 50 58 60 59 59 59 59 59 59
47 45 44 45 45 45 44 44 45 45 45 45 44 45 45 44 44 43 43 44 44 43 43 43 43 43 40 40 40 39 39 41 45 52 58 59 59 59 59 58 58 59
46 46 44 42 43 43 43 42 43 43 44 44 44 44 44 43 43 43 43 43 43 43 43 43 43 42 39 40 42 40 39 40 46 55 57 56 55 55 57 58 59 58
44 44 45 43 41 41 41 41 41 42 43 44 43 43 43 43 43 42 43 43 43 43 42 42 43 39 39 40 43 45 45 46 54 52 52 51 51 51 50 51 54 57
43 42 43 43 42 40 40 40 40 40 41 42 43 43 43 43 43 43 42 43 43 43 42 42 42 39 38 40 41 43 46 51 51 50 49 48 48 48 48 48 49 50
41 41 41 41 42 40 39 39 39 40 40 42 42 42 42 43 42 42 42 43 43 43 42 42 41 40 38 39 40 42 46 50 49 48 48 47 47 47 47 46 47 48
40 40 39 40 40 40 39 38 38 39 39 40 40 41 42 42 42 42 42 42 43 43 42 42 41 40 38 38 39 40 45 48 47 46 45 46 46 46 46 45 46 45
39 39 38 39 39 39 40 39 38 38 39 39 40 41 42 42 42 41 41 42 42 43 43 41 41 41 38 38 38 39 44 47 46 45 44 44 44 45 45 44 44 44
38 38 38 38 38 38 39 39 39 37 37 38 38 40 41 41 42 41 41 41 42 42 42 41 41 41 39 38 38 38 40 45 45 45 44 44 44 43 43 43 44 43

ECMWFNIL_sfc_dewp_105.txt.gz
Dewpoint
58 58 58 58 57 58 58 57 57 58 58 58 58 58 58 59 60 60 60 61 61 62 62 62 62 62 62 62 63 63 63 63 63 63 63 62 62 62 62 62 61 61
56 57 57 56 56 56 55 55 56 56 56 56 56 57 57 58 58 59 59 60 61 61 61 61 61 61 62 62 63 63 63 63 62 63 62 62 62 62 62 62 62 62
54 54 55 55 55 55 55 55 55 55 55 55 55 55 56 56 57 57 58 58 59 60 60 61 61 61 61 62 63 63 63 62 62 62 62 62 62 62 62 62 62 62
54 54 54 54 54 54 55 54 54 54 54 53 53 54 55 54 55 55 56 57 57 58 60 60 61 61 61 62 62 62 62 62 62 62 62 62 62 62 62 62 62 62
53 54 54 54 54 54 53 53 52 52 52 52 52 53 53 52 53 53 54 55 56 57 59 60 60 60 61 62 62 62 62 62 62 62 62 61 62 62 62 62 61 61
53 53 53 53 53 52 52 51 51 51 51 51 51 52 51 52 52 53 54 54 55 56 58 60 60 60 60 60 61 62 62 62 62 62 62 61 61 62 62 62 62 61
52 52 52 52 51 51 51 50 50 51 51 51 51 50 51 51 52 52 52 53 53 56 58 60 60 60 60 60 61 61 61 62 62 62 62 62 62 62 62 62 62 61
51 51 51 50 50 50 50 50 50 50 50 50 49 49 50 50 51 50 50 51 52 53 55 56 58 59 60 60 61 61 61 61 61 61 61 61 61 61 61 62 62 61
50 50 50 49 49 49 49 49 49 49 50 49 49 48 49 49 49 48 49 49 50 51 52 53 55 57 58 58 58 58 60 61 61 61 61 61 61 61 61 62 62 61
49 49 49 49 49 49 49 49 48 48 49 48 48 48 48 48 48 47 48 48 48 48 48 50 51 53 56 54 54 54 54 55 58 60 61 61 61 61 61 62 61 61
49 49 48 48 49 49 48 48 48 48 48 47 47 47 47 47 47 47 47 47 47 47 47 47 48 49 53 52 51 50 49 50 52 55 58 60 61 62 61 62 61 61
48 48 49 49 49 48 48 48 48 47 47 47 47 46 47 46 46 46 46 46 46 46 46 46 47 48 50 51 50 48 47 48 49 51 54 57 60 62 62 62 62 61
48 49 49 49 48 48 48 48 47 47 47 46 47 46 46 46 46 45 46 46 45 45 45 45 46 47 48 50 50 48 46 46 47 48 50 53 57 61 62 62 62 62
48 48 48 48 48 48 48 47 47 47 47 46 47 46 46 45 45 45 45 45 45 45 45 45 45 45 46 48 48 46 45 45 45 46 48 51 54 58 61 61 61 61
47 47 47 47 47 47 47 47 47 47 46 46 46 45 46 45 45 45 45 44 45 45 44 45 45 45 46 47 45 44 44 44 44 45 47 49 53 56 60 61 61 61
46 46 46 46 45 45 45 46 46 46 46 45 45 45 45 44 44 44 44 44 44 44 44 44 45 45 46 44 43 43 42 43 44 45 47 50 52 55 59 60 61 61
44 44 45 45 44 44 44 44 45 45 45 44 44 44 44 44 43 43 43 44 44 43 43 44 44 45 42 39 40 42 42 42 43 45 47 49 52 55 58 59 60 60
44 42 42 43 42 42 42 43 43 44 44 44 44 43 43 43 43 43 43 43 43 43 43 43 43 43 39 39 41 42 42 43 44 46 48 51 55 55 56 57 57 58
44 43 41 41 41 41 41 41 41 42 43 43 43 43 43 43 43 43 43 43 43 42 42 42 42 41 39 40 41 42 42 43 47 51 52 51 50 50 50 50 51 53
43 43 42 40 40 40 40 40 40 41 42 43 43 43 43 42 42 42 43 43 42 42 42 42 41 40 39 39 40 41 42 46 50 49 49 48 47 47 47 47 48 49
41 41 42 41 39 39 39 39 39 40 41 42 43 43 42 42 42 42 42 42 42 41 41 41 40 38 38 39 39 41 42 45 48 48 47 47 47 46 46 46 46 47
40 40 40 40 39 38 38 38 38 39 40 41 42 42 42 42 42 42 42 42 41 41 40 40 39 38 38 38 39 40 43 47 47 47 46 46 46 45 45 46 45 46
39 39 39 39 39 38 37 37 37 38 39 41 41 41 41 41 41 41 41 41 41 41 40 40 39 38 37 38 39 40 43 46 46 46 45 45 45 45 45 45 45 45
39 38 38 38 38 38 37 37 37 38 39 40 40 41 41 41 41 40 40 41 41 41 41 40 40 39 38 38 38 39 42 44 44 44 43 44 44 44 44 44 44 45
38 38 37 37 37 37 37 37 37 38 39 39 40 40 40 40 41 39 39 40 41 41 42 40 40 40 38 37 38 38 42 43 43 43 42 43 43 43 43 43 43 43
37 38 37 37 36 36 37 37 37 37 37 38 39 40 40 40 40 39 39 39 39 40 40 40 40 39 39 37 38 38 39 42 42 42 42 42 42 42 42 42 43 42

ECMWFNIL_sfc_dewp_108.txt.gz
Dewpoint
57 57 57 56 56 56 56 55 55 55 54 54 54 54 55 56 56 56 57 57 58 59 59 60 61 62 62 62 63 63 63 63 63 63 63 63 63 62 62 62 62 62
55 55 56 55 55 55 55 54 54 54 53 53 53 53 54 54 54 54 55 56 57 57 58 59 60 61 61 62 62 62 63 63 63 63 63 63 63 63 62 62 62 62
54 54 54 53 53 53 53 53 53 52 52 52 52 52 52 53 53 53 54 55 55 56 57 58 60 61 61 62 62 62 62 63 62 63 63 62 63 62 63 63 62 62
53 53 53 52 52 52 51 51 51 51 51 51 51 51 52 52 52 52 53 53 53 54 55 57 60 61 60 61 61 61 62 62 63 63 62 63 63 63 62 62 62 62
52 52 51 51 51 51 51 50 50 50 50 50 50 51 51 50 51 52 51 51 51 52 55 58 60 60 60 60 60 60 61 61 62 62 62 62 62 62 62 62 61 61
51 51 51 50 50 50 49 49 49 50 50 50 50 49 49 50 50 50 50 50 50 52 54 54 55 58 59 59 60 60 60 60 61 62 62 61 62 62 62 62 62 61
50 50 50 50 49 49 49 49 49 50 49 49 49 49 49 49 48 48 48 49 49 50 49 50 51 53 54 57 57 57 57 57 58 60 60 61 62 62 62 62 62 61
49 49 49 49 49 49 49 48 49 49 48 48 48 48 48 48 47 47 48 48 48 48 48 48 48 48 50 54 55 54 54 55 55 55 55 58 61 61 62 62 62 61
49 49 49 49 49 49 48 48 48 48 48 48 47 47 48 47 47 47 47 47 47 47 47 47 47 48 49 50 52 52 51 51 52 52 53 54 56 58 60 61 61 61
48 49 49 49 48 48 48 48 48 48 48 47 47 47 47 47 47 46 47 46 46 46 46 46 46 47 47 48 50 51 50 49 49 49 49 51 53 54 57 59 60 60
48 49 48 48 48 48 48 48 48 47 47 47 47 46 46 46 46 46 46 46 46 45 45 45 46 46 46 46 47 49 50 49 48 48 48 49 50 52 55 56 59 60
48 48 48 48 48 48 47 47 47 47 46 46 46 46 46 46 45 46 46 45 45 45 45 45 45 45 45 45 46 47 47 47 47 46 47 47 48 50 52 54 56 59
47 47 47 47 47 47 47 47 47 47 46 45 46 45 45 45 45 45 45 45 45 45 45 45 45 45 45 45 45 45 44 44 45 45 46 46 48 49 51 53 55 58
46 46 46 46 46 45 45 46 46 46 45 45 45 45 45 44 44 44 44 44 44 44 45 45 44 44 45 44 43 43 43 43 43 44 45 46 47 49 51 53 55 57
45 46 45 44 44 44 44 44 45 45 45 45 45 44 45 44 44 44 44 44 44 44 44 44 44 44 44 43 43 43 44 44 44 44 45 46 47 49 51 53 55 57
43 44 43 43 42 42 42 43 43 44 44 44 44 44 44 44 43 44 43 43 43 43 43 43 43 43 44 42 42 44 45 45 45 45 45 46 48 50 52 54 55 57
42 42 42 41 41 41 42 42 42 43 44 44 44 43 43 43 43 43 43 43 43 42 42 42 42 42 40 39 40 42 46 47 46 46 48 49 50 49 49 50 51 51
42 41 40 40 41 40 41 41 42 43 43 43 43 43 43 43 43 42 42 42 42 42 41 41 41 41 38 39 40 40 44 48 49 49 48 48 48 48 48 48 48 49
42 41 39 39 39 40 40 41 41 42 42 43 42 43 42 42 42 42 42 42 42 41 41 40 40 39 38 39 39 40 41 46 48 48 48 47 47 46 46 46 47 48
41 40 39 39 39 39 40 40 41 41 42 42 42 42 42 41 41 41 41 41 41 41 40 40 40 39 38 38 39 39 40 44 47 47 47 46 45 45 45 45 46 46
39 39 39 39 38 38 39 40 40 41 41 42 41 41 41 41 40 41 41 41 41 41 40 40 40 38 37 38 38 39 40 43 46 46 46 45 45 44 44 44 44 45
39 38 38 38 38 38 39 39 40 40 40 41 41 41 41 40 40 40 40 40 41 41 40 39 39 38 37 38 38 38 41 45 45 45 45 45 44 44 44 44 44 44
38 38 38 38 38 38 38 39 39 39 40 41 40 40 40 40 40 39 40 40 40 40 40 39 39 38 37 37 37 38 41 43 44 44 43 43 43 43 43 43 43 43
37 37 37 37 37 37 38 38 39 39 40 41 40 40 39 40 40 39 39 39 39 39 40 39 39 39 37 37 37 37 41 42 42 42 41 42 42 43 43 43 43 43
37 37 36 36 37 37 37 37 38 38 39 39 39 39 39 39 41 39 39 39 39 39 40 39 38 39 38 37 37 37 40 41 41 41 41 41 41 41 42 42 42 42
36 37 37 36 36 37 37 37 38 37 37 38 38 38 39 39 39 39 38 38 39 39 39 39 39 39 39 37 37 37 38 40 40 40 40 40 40 41 40 41 42 41

ECMWFNIL_sfc_dewp_111.txt.gz
Dewpoint
60 59 57 57 56 56 56 56 56 55 55 54 53 54 54 55 55 55 56 56 57 57 58 59 60 61 61 62 63 63 63 64 63 64 64 64 64 64 63 63 63 63
58 57 56 56 55 55 55 55 55 55 54 54 53 53 54 54 55 55 54 55 55 56 56 58 59 60 61 61 62 62 63 63 62 63 62 63 63 64 63 63 62 63
56 56 55 55 54 55 55 55 55 54 53 53 53 53 53 53 54 54 53 54 54 54 56 57 58 59 60 60 60 61 61 62 62 62 63 62 63 62 63 64 63 63
55 55 54 54 54 54 54 54 53 52 52 51 52 52 52 53 53 52 52 53 52 53 55 55 56 56 57 58 59 60 60 61 61 61 62 62 62 62 63 63 63 62
54 53 53 53 53 53 53 52 51 51 51 51 51 51 51 51 51 50 51 51 51 52 52 52 53 53 54 54 56 58 58 58 58 59 60 59 60 62 62 62 62 62
53 51 51 51 52 52 52 51 50 50 50 50 50 50 50 50 49 49 49 50 50 50 50 50 51 51 52 53 54 56 56 56 56 57 57 57 58 59 60 61 61 60
53 53 52 52 52 52 51 50 50 50 50 50 49 49 49 49 49 49 49 49 49 49 49 49 49 50 50 51 52 52 53 54 53 53 53 54 55 56 57 59 61 60
52 52 52 52 51 50 50 49 49 50 50 50 50 49 49 48 48 49 49 48 48 48 48 48 48 48 49 50 50 50 51 52 52 52 52 52 53 54 55 56 57 57
52 51 50 50 50 50 50 49 49 50 49 49 49 49 49 48 48 49 48 48 48 48 47 47 47 47 48 48 48 48 48 50 51 50 50 51 51 52 52 53 55 56
51 50 50 50 50 49 49 49 49 49 49 48 48 48 48 48 48 48 48 47 47 47 47 46 46 47 47 47 47 47 47 47 48 48 49 49 49 50 51 52 53 54
50 50 50 50 49 49 49 48 48 48 48 47 48 47 47 47 47 47 47 46 47 46 46 46 45 46 46 46 46 46 46 46 46 47 48 48 48 49 51 51 52 54
49 49 49 49 48 48 48 48 48 47 47 47 47 46 46 46 46 46 46 45 45 45 45 45 45 45 45 45 45 45 45 46 47 47 47 47 47 48 49 50 52 53
48 48 48 48 48 48 48 47 47 47 46 46 46 46 45 45 45 45 45 45 45 44 44 44 44 44 44 44 44 44 46 47 47 47 47 48 48 49 49 50 51 53
47 47 47 47 47 47 46 47 46 46 46 46 46 45 45 44 44 44 45 44 44 44 44 44 43 43 43 43 44 45 47 48 48 48 48 48 49 50 51 52 52 54
46 46 46 46 46 46 46 46 46 46 45 45 45 45 45 44 44 44 44 43 43 44 43 43 43 43 43 43 43 45 47 48 48 48 48 48 49 49 49 49 50 51
44 45 45 45 45 45 45 45 45 45 45 44 44 44 44 44 43 44 43 44 43 43 43 43 42 43 43 41 42 44 47 48 48 48 47 47 47 47 48 48 49 50
43 43 44 44 44 44 45 44 44 45 44 44 44 44 44 43 43 42 43 43 43 43 43 43 42 42 39 39 39 41 46 48 47 47 47 47 47 47 47 48 48 48
43 43 43 44 44 43 44 44 44 44 43 43 43 43 43 43 43 43 43 43 43 43 43 43 42 41 38 39 39 39 42 47 47 47 47 47 46 46 46 46 46 47
42 42 43 43 43 43 44 44 43 43 42 42 43 43 43 43 43 43 43 43 43 42 43 42 41 39 38 38 39 39 40 44 46 46 46 46 45 45 45 45 45 46
42 42 42 42 43 43 42 42 42 42 43 43 43 43 43 42 43 43 43 42 42 42 42 42 40 38 37 38 38 38 39 42 46 46 45 44 44 44 44 44 44 44
42 42 42 42 42 42 43 42 43 43 42 42 42 42 42 41 42 42 42 42 42 42 42 42 40 37 37 37 38 38 39 42 45 45 44 44 43 43 43 43 43 43
42 42 42 42 42 42 42 42 42 43 42 42 42 42 42 41 41 41 41 41 41 42 42 41 40 37 37 37 37 38 40 44 44 43 43 42 42 42 42 42 42 42
41 41 42 41 41 41 41 42 42 42 42 42 41 41 41 41 41 40 40 40 40 41 41 41 41 38 36 37 37 37 41 43 43 42 41 41 41 42 42 42 42 42
40 40 40 40 40 40 41 41 42 41 42 42 41 40 40 40 39 39 39 39 40 40 40 40 40 39 37 37 37 37 40 42 41 41 41 41 41 41 42 42 42 43
40 40 40 40 40 41 42 41 41 41 42 41 41 41 40 39 39 38 39 39 40 40 40 40 40 39 37 36 37 37 40 42 41 41 41 41 41 41 42 42 42 42
40 41 41 40 40 41 41 41 42 41 42 41 41 39 39 38 38 38 38 39 39 39 40 40 39 39 38 36 37 37 38 41 41 40 40 41 41 41 41 42 41 41

ECMWFNIL_sfc_dewp_114.txt.gz
Dewpoint
60 60 59 59 58 58 58 57 57 57 57 56 56 56 55 56 56 57 57 57 57 57 57 58 58 59 59 60 61 61 61 62 62 62 62 62 62 62 62 63 63 61
59 58 57 57 56 56 57 57 57 56 56 56 56 55 56 56 56 56 55 56 56 56 57 58 58 58 59 59 60 60 60 61 61 61 61 61 61 62 62 62 63 62
57 57 57 57 56 57 57 57 57 57 56 55 56 55 55 55 55 55 55 55 55 55 56 56 56 56 57 58 58 58 59 59 59 60 60 59 59 60 61 62 62 62
57 57 56 56 56 56 56 56 56 55 55 54 54 54 53 54 54 54 54 53 54 54 54 54 55 55 55 56 57 56 58 57 58 58 58 58 58 58 59 59 61 62
56 56 55 55 55 55 56 55 54 54 54 53 54 53 52 53 53 52 52 53 53 53 53 53 54 54 54 54 55 55 56 56 56 56 56 56 57 57 57 58 58 59
55 53 54 53 54 53 53 54 53 53 52 53 53 52 52 52 51 51 52 52 52 52 52 53 52 53 53 53 54 54 55 55 55 55 54 55 55 56 56 57 57 58
54 54 54 53 54 53 54 54 53 53 52 53 52 52 52 51 51 51 51 51 51 51 51 52 52 52 53 53 53 53 53 53 53 53 53 53 54 54 54 56 56 56
54 54 53 53 54 54 53 52 52 52 52 51 52 51 51 50 50 51 51 51 51 50 50 50 50 51 52 52 52 52 53 53 52 51 51 52 52 52 53 54 55 55
53 53 53 53 53 52 52 51 51 51 50 51 50 50 50 50 50 50 50 50 49 50 49 50 50 50 51 51 51 51 50 51 51 51 50 50 51 52 51 52 53 54
53 52 52 52 51 51 51 51 50 50 50 50 50 50 49 50 50 49 49 49 49 49 48 48 49 50 50 50 50 50 50 50 50 50 50 50 50 50 51 52 52 53
52 51 51 51 51 50 50 50 50 50 50 48 49 49 49 49 49 49 48 48 49 48 48 48 48 48 49 49 50 50 50 50 50 50 50 50 50 50 51 51 51 52
51 51 50 50 50 50 50 50 50 49 49 49 48 48 49 49 49 48 48 47 47 47 47 47 47 47 47 47 48 49 50 51 51 50 50 50 50 51 51 52 52 52
50 50 49 50 50 49 49 48 48 49 48 48 48 48 48 48 47 47 47 47 47 47 47 47 47 47 47 47 47 48 49 50 51 51 50 50 50 50 50 51 51 51
49 49 49 49 49 49 48 48 48 48 48 48 48 47 47 47 46 47 47 47 47 47 47 47 46 45 44 45 45 47 50 50 50 50 50 50 50 49 49 49 50 50
48 48 48 48 48 48 48 48 48 48 47 47 47 47 48 47 47 47 46 46 46 47 46 46 45 44 44 43 44 46 50 50 50 49 50 49 48 48 48 49 49 49
47 48 47 47 47 47 47 47 47 47 47 47 46 46 46 47 46 47 46 46 46 46 46 46 44 43 42 41 41 43 48 50 49 49 48 48 48 48 48 48 48 49
46 46 46 46 47 47 47 46 46 47 47 46 47 47 47 47 47 46 46 46 45 45 45 46 44 42 39 38 39 40 45 49 48 48 47 47 47 47 47 48 48 47
45 46 46 46 46 45 45 45 46 46 45 46 46 46 47 47 46 45 45 46 46 45 45 45 44 39 37 38 39 39 41 47 47 47 47 46 46 46 46 46 46 47
44 45 45 45 45 45 45 45 45 45 45 45 45 46 46 46 45 45 45 45 45 44 45 43 42 38 37 38 38 38 39 43 46 47 46 46 46 45 45 45 45 45
43 43 44 44 45 45 45 44 45 44 45 45 45 45 45 45 45 45 45 44 44 44 44 43 41 38 37 38 38 38 38 41 46 46 46 45 45 44 44 44 44 43
41 43 43 43 44 44 44 44 44 44 44 44 44 44 44 43 44 44 44 44 44 44 44 44 41 37 37 37 37 38 38 41 46 46 45 45 44 44 44 44 43 43
42 42 43 42 43 43 43 43 44 44 43 43 43 42 43 42 41 42 42 42 43 43 43 43 41 37 36 37 37 37 38 45 45 44 44 43 43 43 43 43 42 43
41 41 42 42 42 42 41 42 43 43 43 42 42 42 42 41 41 41 41 41 41 42 42 42 41 38 36 37 37 37 42 44 44 43 43 43 43 43 43 43 42 41
41 40 41 41 40 40 42 42 43 42 42 42 41 41 40 40 41 41 41 41 41 40 40 41 41 39 36 36 36 37 39 43 42 43 43 43 42 43 42 42 41 42
40 40 39 39 40 41 43 42 41 41 42 42 41 40 40 39 39 39 40 41 41 41 41 41 41 39 37 36 36 36 40 44 42 41 42 41 41 40 41 40 40 40
41 41 41 39 40 42 41 40 42 42 42 41 40 38 38 37 37 39 40 40 40 39 39 41 41 39 38 36 36 36 36 41 42 41 40 40 39 38 39 39 39 39

ECMWFNIL_sfc_dewp_117.txt.gz
Dewpoint
61 61 60 60 59 59 59 58 57 58 58 57 56 56 56 57 57 57 57 57 57 57 57 58 58 59 59 60 60 60 59 59 60 60 60 60 60 61 61 61 62 62
59 59 58 58 57 58 58 58 58 57 57 57 57 55 57 56 56 56 56 56 56 56 56 57 57 56 57 58 58 58 58 59 59 59 59 59 59 59 59 60 60 60
58 59 58 57 57 58 57 57 57 56 56 55 56 56 56 56 55 55 55 55 55 55 56 56 56 55 56 56 57 57 58 58 58 59 59 58 58 58 58 58 59 59
57 57 57 56 57 57 57 56 56 56 55 55 55 54 54 55 55 54 54 54 55 55 55 55 55 55 55 55 56 56 56 56 57 57 57 57 57 57 57 58 58 58
56 56 56 56 55 55 55 54 54 54 54 54 54 54 54 54 54 53 54 54 54 53 54 54 54 54 54 55 55 55 55 55 55 56 55 55 56 56 56 57 56 56
54 53 53 53 54 55 54 53 53 53 53 54 54 53 53 53 53 53 53 53 53 53 53 53 53 53 54 54 55 55 54 54 55 55 54 54 55 55 55 55 55 55
54 54 54 53 54 54 54 54 53 53 53 53 52 53 53 53 52 52 52 52 52 52 51 52 52 53 53 54 53 53 54 54 54 53 53 54 54 54 54 54 54 54
54 54 53 54 54 54 53 52 52 52 53 52 53 52 52 51 51 52 52 51 51 50 51 51 51 51 52 53 52 53 53 54 54 53 53 53 53 52 53 53 54 54
53 53 53 53 53 52 52 51 52 52 51 52 51 51 51 51 51 51 50 50 50 50 50 50 50 51 52 52 52 52 52 52 53 52 52 52 52 52 52 52 53 53
53 52 52 52 52 52 52 52 51 51 51 51 51 51 50 51 50 49 49 50 49 49 49 49 49 50 51 51 51 51 51 51 52 52 52 52 52 51 51 52 52 52
52 52 52 51 51 51 51 51 51 51 50 49 50 50 50 50 49 49 49 49 50 48 48 48 49 49 49 49 50 51 51 51 51 51 52 52 52 51 52 51 51 51
51 51 51 51 51 51 51 50 50 50 50 50 49 49 49 49 49 49 49 47 47 48 48 48 48 48 47 47 47 49 51 51 52 52 52 51 51 50 50 50 51 50
50 50 50 50 50 50 50 49 49 50 49 48 49 48 48 48 48 47 48 48 48 48 48 47 47 47 46 46 47 48 49 51 51 51 51 51 50 50 50 50 50 50
49 49 50 50 50 49 49 49 49 49 49 49 48 48 48 47 47 47 48 48 48 47 47 47 46 45 45 45 46 47 48 50 50 50 49 49 50 49 49 49 49 49
49 49 49 49 48 49 48 48 49 49 48 48 48 48 48 47 47 47 47 46 46 47 46 46 46 46 45 43 43 45 46 49 49 48 48 48 48 48 48 48 48 49
48 48 48 48 48 48 48 48 48 48 48 48 47 47 47 47 47 47 46 46 46 45 46 47 46 45 43 40 41 42 45 49 48 48 47 47 47 47 47 47 47 47
47 47 47 47 47 47 48 47 47 48 48 47 47 47 48 47 46 46 46 46 45 45 45 46 45 43 39 38 38 40 44 48 47 47 46 46 46 46 46 46 46 45
45 46 46 46 46 45 46 46 47 47 46 46 47 47 47 47 46 46 46 46 46 45 45 45 45 40 37 38 38 38 40 46 47 46 46 45 45 45 45 44 44 45
44 45 45 45 45 45 46 46 45 45 45 45 46 47 47 46 45 45 45 45 45 44 44 43 43 38 37 38 38 38 38 43 46 46 45 45 45 44 44 43 43 43
44 44 44 44 45 45 45 44 44 44 45 45 45 46 45 45 45 45 45 44 44 44 44 43 41 38 37 37 37 37 37 40 46 46 45 44 44 44 44 43 42 42
43 43 43 43 43 44 44 43 44 44 44 44 44 44 43 43 43 44 44 44 43 43 43 43 41 36 36 37 37 37 37 41 45 45 44 44 44 43 43 43 40 40
43 43 43 43 43 43 43 42 43 43 43 43 42 42 43 42 42 42 42 41 42 42 42 40 40 36 36 36 37 36 37 45 44 44 43 43 42 42 41 41 39 39
42 42 42 42 42 42 42 43 43 42 42 42 42 42 42 42 43 43 42 42 42 42 40 39 39 37 35 36 36 36 39 44 43 42 42 41 41 41 40 40 40 38
42 40 41 41 41 41 42 43 42 41 41 42 41 41 41 41 40 39 39 40 41 41 40 39 39 38 36 36 36 36 38 43 39 41 41 40 39 40 39 39 41 43
41 40 40 40 41 41 42 41 41 41 42 41 40 40 41 40 40 39 38 38 38 40 42 40 38 38 36 35 36 36 39 42 38 38 38 38 37 36 38 38 38 39
40 40 41 40 39 40 40 40 41 41 42 41 40 37 37 38 39 40 40 39 38 37 38 39 39 37 38 35 36 36 36 40 40 38 37 36 36 34 35 36 36 36